Weather History for Miami, FL

Change the Weather History Date:

Tuesday, February 5, 2013

  Actual Average Record
Temperature  
Mean Temperature 68 °F 69 °F  
Max Temperature 79 °F 77 °F 85 °F (1949)
Min Temperature 57 °F 61 °F 35 °F (1958)
Degree Days  
Heating Degree Days 0 1  
Month to date heating degree days 0 5  
Since 1 July heating degree days 20 95  
Cooling Degree Days 3 5  
Month to date cooling degree days 9 25  
Year to date cooling degree days 278 176  
Growing Degree Days 18 (Base 50)    
Moisture  
Dew Point 58 °F    
Average Humidity 68    
Maximum Humidity 87    
Minimum Humidity 48    
Precipitation  
Precipitation T in 0.08 in 1.65 in (1987)
Month to date precipitation T 0.38  
Year to date precipitation 0.54 2.00  
Snow  
Snow 0.00 in - - ()
Month to date snowfall 0.0  
Since 1 July snowfall 0.0  
Snow Depth 0.00 in    
Sea Level Pressure  
Sea Level Pressure 30.06 in    
Wind  
Wind Speed 4 mph (SE)    
Max Wind Speed 13 mph    
Max Gust Speed 23 mph    
Visibility 10 miles    
Events      
T = Trace of Precipitation, MM = Missing Value Source: NWS Daily Summary

Daily Weather History Graph

Daily Weather History Graph

Search for Another Location

Airport:

Trip Planner

Search our weather history database for the weather conditions in past years. The results will help you decide how hot, cold, wet, or windy it might be!

Date:

Astronomy

Feb. 05, 2013 Rise Set
Actual Time 7:02 AM EST 6:08 PM EST
Civil Twilight 6:38 AM EST 6:31 PM EST
Nautical Twilight 6:11 AM EST 6:59 PM EST
Astronomical Twilight 5:44 AM EST 7:26 PM EST
Moon 2:32 AM EST (2/5) 1:34 PM EST (2/5)
Length of Visible Light 11h 53m
Length of Day
11h 05m
Waning Crescent, 27% of the Moon is Illuminated
Feb 5
Waning Crescent
Feb 10
New
Feb 17
First Quarter
Feb 25
Full
Mar 4
Last Quarter

Hourly Weather History & Observations

Time (EST) Temp. Dew Point Humidity Pressure Visibility Wind Dir Wind Speed Gust Speed Precip Events Conditions
12:53 AM 62.1 °F 54.0 °F 75% 30.08 in 10.0 mi Calm Calm - N/A   Clear
1:53 AM 61.0 °F 54.0 °F 78% 30.07 in 10.0 mi Calm Calm - N/A   Clear
2:53 AM 60.1 °F 55.0 °F 83% 30.06 in 10.0 mi NNW 3.5 mph - N/A   Clear
3:53 AM 59.0 °F 54.0 °F 83% 30.05 in 10.0 mi Calm Calm - N/A   Partly Cloudy
4:53 AM 59.0 °F 55.0 °F 87% 30.05 in 10.0 mi Calm Calm - N/A   Scattered Clouds
5:53 AM 57.9 °F 54.0 °F 87% 30.06 in 10.0 mi Calm Calm - N/A   Scattered Clouds
6:53 AM 60.8 °F 53.6 °F 77% 30.06 in 10.0 mi NNE 4.6 mph - N/A   Scattered Clouds
7:53 AM 62.1 °F 54.0 °F 75% 30.07 in 10.0 mi Variable 3.5 mph - N/A   Scattered Clouds
8:53 AM 69.1 °F 54.0 °F 58% 30.09 in 10.0 mi NNE 3.5 mph - N/A   Scattered Clouds
9:53 AM 73.0 °F 55.9 °F 55% 30.10 in 10.0 mi Variable 3.5 mph - N/A   Partly Cloudy
10:53 AM 75.9 °F 57.9 °F 54% 30.09 in 10.0 mi ESE 9.2 mph - N/A   Partly Cloudy
11:53 AM 77.0 °F 59.0 °F 54% 30.09 in 10.0 mi Variable 4.6 mph - N/A   Scattered Clouds
12:53 PM 78.1 °F 57.9 °F 50% 30.06 in 10.0 mi SSE 10.4 mph - N/A   Scattered Clouds
1:53 PM 75.9 °F 57.9 °F 54% 30.04 in 10.0 mi SE 6.9 mph - N/A   Mostly Cloudy
2:53 PM 73.9 °F 59.0 °F 59% 30.03 in 10.0 mi ESE 9.2 mph - N/A   Mostly Cloudy
3:53 PM 75.0 °F 60.1 °F 60% 30.03 in 10.0 mi SE 9.2 mph - 0.00 in   Mostly Cloudy
4:53 PM 75.0 °F 61.0 °F 62% 30.03 in 10.0 mi SE 5.8 mph - N/A   Scattered Clouds
5:53 PM 73.0 °F 62.1 °F 68% 30.02 in 10.0 mi SSE 8.1 mph - N/A   Scattered Clouds
6:53 PM 72.0 °F 62.1 °F 71% 30.03 in 10.0 mi SE 4.6 mph - N/A   Scattered Clouds
7:53 PM 71.1 °F 63.0 °F 75% 30.05 in 10.0 mi SSE 3.5 mph - N/A   Mostly Cloudy
8:53 PM 71.1 °F 63.0 °F 75% 30.05 in 10.0 mi SE 3.5 mph - N/A   Mostly Cloudy
9:53 PM 71.1 °F 63.0 °F 75% 30.06 in 10.0 mi Variable 4.6 mph - N/A   Scattered Clouds
10:53 PM 70.0 °F 64.0 °F 81% 30.07 in 10.0 mi Calm Calm - N/A   Partly Cloudy
11:53 PM 69.1 °F 63.0 °F 81% 30.06 in 10.0 mi Calm Calm - N/A   Mostly Cloudy